Rockingham, NC

1:23 AM EDT on May 28, 2017 (GMT -0400)
Rockingham

Weather History for KRCZ - February, 2014

Change the Weather History Date:

Friday, February 21, 2014

  Actual Average (KHFF) Record (KHFF)
Temperature  
Mean Temperature 58 °F -  
Max Temperature 69 °F 52 °F 77 °F (2011)
Min Temperature 45 °F 34 °F 20 °F (2009)
Degree Days  
Heating Degree Days 7    
Growing Degree Days 8 (Base 50)    
Moisture  
Dew Point 59 °F    
Average Humidity 87    
Maximum Humidity 100    
Minimum Humidity 65    
Precipitation  
Precipitation 0.38 in - - ()
Sea Level Pressure  
Sea Level Pressure 29.93 in    
Wind  
Wind Speed 11 mph (SSW)    
Max Wind Speed 21 mph    
Max Gust Speed 32 mph    
Visibility 10 miles    
Events Fog , Rain    
Averages and records for this station are not official NWS values.
T = Trace of Precipitation, MM = Missing Value Source: NWS Daily Summary

Daily Weather History Graph

Daily Weather History Graph

Search for Another Location

Airport or City:

Trip Planner

Search our weather history database for the weather conditions in past years. The results will help you decide how hot, cold, wet, or windy it might be!

Date:

Astronomy

Feb. 21, 2014 Rise Set
Actual Time 6:58 AM EST 6:07 PM EST
Civil Twilight 6:32 AM EST 6:33 PM EST
Nautical Twilight 6:03 AM EST 7:02 PM EST
Astronomical Twilight 5:33 AM EST 7:31 PM EST
Moon No Moon Rise 10:36 AM EST (2/21)
Length of Visible Light 12h 00m
Length of Day
11h 09m
Waning Gibbous, 61% of the Moon is Illuminated
Feb 21
Waning Gibbous
Feb 22
Last Quarter
Mar 1
New
Mar 8
First Quarter
Mar 16
Full

Hourly Weather History & Observations

Time (EST) Temp. Dew Point Humidity Pressure Visibility Wind Dir Wind Speed Gust Speed Precip Events Conditions
12:15 AM 66.6 °F 62.8 °F 88% 30.00 in 10.0 mi SSE 10.4 mph 18.4 mph N/A   Unknown
12:35 AM 66.4 °F 63.3 °F 90% 29.99 in 10.0 mi SSE 10.4 mph 17.3 mph N/A   Unknown
12:55 AM 66.9 °F 63.5 °F 89% 29.98 in 10.0 mi South 13.8 mph 21.9 mph N/A   Unknown
1:15 AM 67.1 °F 63.5 °F 88% 29.98 in 10.0 mi South 13.8 mph 27.6 mph N/A   Unknown
1:35 AM 67.1 °F 63.5 °F 88% 29.98 in 10.0 mi South 15.0 mph 24.2 mph N/A   Unknown
1:55 AM 67.1 °F 63.5 °F 88% 29.98 in 10.0 mi South 15.0 mph 19.6 mph N/A   Unknown
2:15 AM 67.1 °F 63.5 °F 88% 29.98 in 10.0 mi South 13.8 mph 20.7 mph N/A   Unknown
2:35 AM 67.1 °F 63.5 °F 88% 29.97 in 10.0 mi South 13.8 mph 19.6 mph N/A   Unknown
2:55 AM 67.1 °F 63.5 °F 88% 29.97 in 10.0 mi South 12.7 mph 17.3 mph N/A   Unknown
3:15 AM 67.1 °F 63.1 °F 87% 29.97 in 10.0 mi South 13.8 mph 17.3 mph N/A   Unknown
3:35 AM 67.3 °F 63.3 °F 87% 29.96 in 10.0 mi South 13.8 mph 21.9 mph N/A   Unknown
3:55 AM 67.3 °F 63.1 °F 87% 29.95 in 10.0 mi South 13.8 mph 23.0 mph N/A   Unknown
4:15 AM 67.3 °F 63.0 °F 86% 29.95 in 10.0 mi South 11.5 mph 17.3 mph N/A   Unknown
4:35 AM 67.1 °F 62.6 °F 85% 29.94 in 10.0 mi South 11.5 mph 19.6 mph N/A   Unknown
4:55 AM 66.9 °F 62.6 °F 86% 29.93 in 10.0 mi South 9.2 mph 19.6 mph N/A   Unknown
5:15 AM 66.7 °F 62.6 °F 86% 29.94 in 10.0 mi South 10.4 mph - N/A   Unknown
5:35 AM 66.6 °F 62.6 °F 87% 29.93 in 10.0 mi South 12.7 mph 21.9 mph N/A   Unknown
5:55 AM 66.2 °F 62.6 °F 88% 29.91 in 10.0 mi South 12.7 mph 19.6 mph N/A   Unknown
6:15 AM 66.6 °F 62.8 °F 88% 29.91 in 10.0 mi South 13.8 mph 21.9 mph N/A   Unknown
6:35 AM 66.6 °F 62.8 °F 88% 29.91 in 10.0 mi South 10.4 mph 21.9 mph N/A   Unknown
6:55 AM 66.4 °F 63.0 °F 89% 29.90 in 10.0 mi South 15.0 mph 20.7 mph N/A   Unknown
7:15 AM 66.4 °F 63.1 °F 89% 29.90 in 10.0 mi South 12.7 mph 18.4 mph N/A   Unknown
7:35 AM 66.6 °F 63.5 °F 90% 29.90 in 10.0 mi South 15.0 mph 20.7 mph N/A   Unknown
7:55 AM 66.7 °F 63.5 °F 89% 29.91 in 10.0 mi South 13.8 mph 23.0 mph N/A   Unknown
8:15 AM 67.1 °F 63.7 °F 89% 29.92 in 10.0 mi South 15.0 mph 19.6 mph N/A   Unknown
8:35 AM 67.5 °F 63.7 °F 88% 29.92 in 10.0 mi South 15.0 mph 18.4 mph N/A   Unknown
8:55 AM 68.4 °F 63.7 °F 85% 29.91 in 10.0 mi South 10.4 mph 21.9 mph N/A   Unknown
9:15 AM 68.2 °F 63.7 °F 85% 29.91 in 10.0 mi South 13.8 mph 19.6 mph N/A   Unknown
9:35 AM 68.9 °F 63.7 °F 83% 29.90 in 10.0 mi South 11.5 mph 23.0 mph N/A   Unknown
9:55 AM 69.4 °F 63.7 °F 82% 29.90 in 10.0 mi SSW 15.0 mph 24.2 mph N/A   Unknown
10:15 AM 69.8 °F 63.5 °F 80% 29.90 in 10.0 mi South 16.1 mph 24.2 mph N/A   Unknown
10:35 AM 69.1 °F 63.9 °F 83% 29.89 in 7.0 mi SSW 15.0 mph 29.9 mph N/A Rain Light Rain
10:55 AM 69.4 °F 64.0 °F 83% 29.87 in 10.0 mi South 12.7 mph 21.9 mph N/A   Unknown
11:15 AM 66.9 °F 63.9 °F 90% 29.92 in 4.0 mi WSW 19.6 mph 23.0 mph 0.01 in Rain Heavy Rain
11:35 AM 62.2 °F 60.1 °F 93% 29.90 in 4.0 mi SW 15.0 mph 32.2 mph 0.17 in Rain Rain
11:55 AM 61.3 °F 59.0 °F 92% 29.89 in 7.0 mi South 9.2 mph 18.4 mph 0.31 in Rain Rain
12:15 PM 61.3 °F 59.9 °F 95% 29.83 in 7.0 mi SE 11.5 mph - 0.06 in Rain Light Rain
12:35 PM 61.7 °F 60.3 °F 95% 29.85 in 10.0 mi West 6.9 mph - 0.07 in   Unknown
12:55 PM 62.4 °F 61.2 °F 96% 29.86 in 10.0 mi SW 5.8 mph - 0.07 in   Unknown
1:15 PM 63.5 °F 62.2 °F 96% 29.86 in 10.0 mi SW 10.4 mph - N/A   Unknown
1:35 PM 64.6 °F 62.8 °F 94% 29.86 in 10.0 mi SW 11.5 mph 16.1 mph N/A   Unknown
1:55 PM 64.8 °F 62.4 °F 92% 29.86 in 10.0 mi SSW 11.5 mph 19.6 mph N/A   Unknown
2:15 PM 65.3 °F 62.2 °F 90% 29.85 in 10.0 mi SSW 12.7 mph 17.3 mph N/A   Unknown
2:35 PM 66.2 °F 62.2 °F 87% 29.85 in 10.0 mi SW 20.7 mph - N/A   Unknown
2:55 PM 67.3 °F 61.3 °F 81% 29.85 in 10.0 mi SW 17.3 mph 21.9 mph N/A   Unknown
3:15 PM 67.1 °F 60.3 °F 79% 29.84 in 10.0 mi SW 10.4 mph 16.1 mph N/A   Unknown
3:35 PM 66.6 °F 61.5 °F 84% 29.84 in 10.0 mi SW 11.5 mph - N/A   Unknown
3:55 PM 67.1 °F 60.6 °F 80% 29.84 in 10.0 mi SW 9.2 mph - N/A   Unknown
4:15 PM 66.9 °F 60.6 °F 80% 29.85 in 10.0 mi SSW 8.1 mph - N/A   Unknown
4:35 PM 68.0 °F 58.5 °F 71% 29.85 in 10.0 mi WSW 12.7 mph 18.4 mph N/A   Unknown
4:55 PM 68.4 °F 56.3 °F 65% 29.86 in 10.0 mi WSW 11.5 mph 18.4 mph N/A   Unknown
5:15 PM 67.1 °F 55.4 °F 66% 29.88 in 10.0 mi WNW 11.5 mph 18.4 mph N/A   Unknown
5:35 PM 63.7 °F 54.5 °F 72% 29.90 in 10.0 mi NW 10.4 mph - N/A   Unknown
5:55 PM 62.4 °F 53.1 °F 71% 29.91 in 10.0 mi NW 5.8 mph - N/A   Unknown
6:15 PM 61.2 °F 52.7 °F 74% 29.92 in 10.0 mi NW 3.5 mph - N/A   Unknown
6:35 PM 60.4 °F 51.3 °F 72% 29.94 in 10.0 mi NNW 3.5 mph - N/A   Unknown
6:55 PM 59.9 °F 51.3 °F 73% 29.95 in 10.0 mi Calm Calm - N/A   Unknown
7:15 PM 59.0 °F 51.3 °F 75% 29.97 in 10.0 mi Calm Calm - N/A   Unknown
7:35 PM 57.9 °F 51.4 °F 79% 29.98 in 10.0 mi Calm Calm - N/A   Unknown
7:55 PM 56.1 °F 51.1 °F 83% 29.98 in 10.0 mi Calm Calm - N/A   Unknown
8:15 PM 54.0 °F 50.5 °F 88% 29.98 in 10.0 mi Calm Calm - N/A   Unknown
8:35 PM 53.6 °F 50.0 °F 88% 29.99 in 10.0 mi Calm Calm - N/A   Unknown
8:55 PM 51.3 °F 49.3 °F 93% 30.00 in 10.0 mi Calm Calm - N/A   Unknown
9:15 PM 51.4 °F 50.2 °F 95% 30.00 in 10.0 mi Calm Calm - N/A   Unknown
9:35 PM 52.3 °F 50.9 °F 95% 30.00 in 10.0 mi South 3.5 mph - N/A   Unknown
9:55 PM 50.7 °F 49.6 °F 96% 30.00 in 10.0 mi Calm Calm - N/A   Unknown
10:15 PM 51.6 °F 50.9 °F 97% 30.01 in 10.0 mi Calm Calm - N/A   Unknown
10:35 PM 50.9 °F 50.2 °F 97% 30.02 in 10.0 mi Calm Calm - N/A   Unknown
10:55 PM 49.3 °F 48.9 °F 99% 30.02 in 10.0 mi Calm Calm - N/A   Unknown
11:15 PM 48.4 °F 48.2 °F 99% 30.03 in 10.0 mi Calm Calm - N/A   Unknown
11:35 PM 47.1 °F 46.9 °F 99% 30.03 in 5.0 mi Calm Calm - N/A   Mist
11:55 PM 45.5 °F 45.5 °F 100% 30.03 in 0.2 mi Calm Calm - N/A Fog Fog